Sisseton, SD

10:00 PM CDT on March 22, 2017 (GMT -0500)
Sisseton

Weather History for K8D3 - November, 2011

Change the Weather History Date:

Wednesday, November 2, 2011

  Actual Average Record
Temperature  
Mean Temperature 36 °F 38 °F  
Max Temperature 47 °F 48 °F 79 °F (1965)
Min Temperature 24 °F 29 °F -1 °F (1951)
Degree Days  
Heating Degree Days 29 27  
Month to date heating degree days 43 53  
Since 1 July heating degree days 692 880  
Cooling Degree Days 0 0  
Month to date cooling degree days 0 0  
Year to date cooling degree days 642 527  
Moisture  
Dew Point 23 °F    
Average Humidity 54    
Maximum Humidity 70    
Minimum Humidity 38    
Precipitation  
Precipitation 0.00 in 0.03 in 0.56 in (1957)
Month to date precipitation 0.00 0.06  
Year to date precipitation 20.97 21.42  
Snow  
Snow 0.00 in - - ()
Month to date snowfall 0.0  
Since 1 July snowfall 0.0  
Snow Depth 0.00 in    
Sea Level Pressure  
Sea Level Pressure 30.30 in    
Wind  
Wind Speed 12 mph (NNW)    
Max Wind Speed 22 mph    
Max Gust Speed 26 mph    
T = Trace of Precipitation, MM = Missing Value Source: NWS Daily Summary

Daily Weather History Graph

Daily Weather History Graph

Search for Another Location

Airport or City:

Trip Planner

Search our weather history database for the weather conditions in past years. The results will help you decide how hot, cold, wet, or windy it might be!

Date:

Astronomy

Nov. 02, 2011 Rise Set
Actual Time 8:08 AM CDT 6:13 PM CDT
Civil Twilight 7:37 AM CDT 6:44 PM CDT
Nautical Twilight 7:02 AM CDT 7:19 PM CDT
Astronomical Twilight 6:28 AM CDT 7:54 PM CDT
Moon 2:28 PM CDT (11/2) No Moon Set
Length of Visible Light 11h 06m
Length of Day
10h 04m
Waxing Crescent, 50% of the Moon is Illuminated
Nov 2
Waxing Crescent
Nov 10
Full
Nov 18
Last Quarter
Nov 25
New
Dec 2
First Quarter

Hourly Weather History & Observations

Time (CDT) Temp. Windchill Dew Point Humidity Pressure Visibility Wind Dir Wind Speed Gust Speed Precip Events Conditions
12:56 AM 44.1 °F 37.4 °F 27.0 °F 51% 30.19 in - NNW 13.8 mph - N/A   Unknown
1:56 AM 43.0 °F 36.8 °F 27.0 °F 53% 30.19 in - NNW 11.5 mph - N/A   Unknown
2:56 AM 42.1 °F 34.5 °F 27.0 °F 55% 30.21 in - NNW 15.0 mph - N/A   Unknown
3:56 AM 39.9 °F 32.1 °F 27.0 °F 60% 30.22 in - NNW 13.8 mph - N/A   Unknown
4:56 AM 37.9 °F 28.9 °F 27.0 °F 65% 30.25 in - NNW 16.1 mph - N/A   Unknown
5:56 AM 37.0 °F 28.1 °F 26.1 °F 65% 30.28 in - NNW 15.0 mph - N/A   Unknown
6:56 AM 36.0 °F 27.5 °F 25.0 °F 64% 30.29 in - NNW 12.7 mph - N/A   Unknown
7:56 AM 34.0 °F 25.5 °F 25.0 °F 70% 30.31 in - NNW 11.5 mph - N/A   Unknown
8:56 AM 33.1 °F 23.9 °F 25.0 °F 72% 30.34 in - NNW 12.7 mph - N/A   Unknown
9:56 AM 36.0 °F 26.0 °F 26.1 °F 67% 30.34 in - NNW 17.3 mph - N/A   Unknown
10:56 AM 37.9 °F 28.2 °F 27.0 °F 65% 30.35 in - North 18.4 mph - N/A   Unknown
11:56 AM 43.0 °F 35.1 °F 28.0 °F 56% 30.35 in - North 17.3 mph - N/A   Unknown
12:56 PM 45.0 °F 37.6 °F 23.0 °F 42% 30.34 in - North 17.3 mph - N/A   Unknown
1:56 PM 46.0 °F 39.6 °F 23.0 °F 40% 30.31 in - North 15.0 mph - N/A   Unknown
2:56 PM 46.0 °F 38.5 °F 23.0 °F 40% 30.30 in - North 19.6 mph - N/A   Unknown
3:56 PM 46.9 °F - 23.0 °F 39% 30.31 in - North 17.3 mph - N/A   Unknown
4:56 PM 46.0 °F 39.9 °F 23.0 °F 40% 30.32 in - North 13.8 mph - N/A   Unknown
5:56 PM 42.1 °F 35.7 °F 19.9 °F 41% 30.33 in - North 11.5 mph - N/A   Unknown
6:56 PM 34.0 °F 28.8 °F 18.0 °F 52% 30.35 in - North 5.8 mph - N/A   Unknown
7:56 PM 35.1 °F 30.1 °F 17.1 °F 48% 30.35 in - NNW 5.8 mph - N/A   Unknown
8:56 PM 30.9 °F 26.2 °F 16.0 °F 54% 30.35 in - NW 4.6 mph - N/A   Unknown
9:56 PM 30.0 °F 25.2 °F 16.0 °F 56% 30.35 in - NW 4.6 mph - N/A   Unknown
10:56 PM 30.9 °F - 15.1 °F 52% 30.33 in - Calm Calm - N/A   Unknown
11:56 PM 28.0 °F 24.2 °F 17.1 °F 63% 30.32 in - WNW 3.5 mph - N/A   Unknown